Regional Weather Roundup
Issued by NWS

Home | Current Version | Previous Version | Graphics & Text | Print | Product List | Glossary On
Versions: 1 2 3 4 5 6 7 8 9 10 11 12 13 14 15 16 17 18 19 20 21 22 23 24 25 26 27 28 29 30 31 32 33 34 35 36 37 38 39 40 41 42 43 44 45 46 47 48 49 50
000
ASUS43 KMPX 021201
RWRMN
WEATHER ROUNDUP FOR MINNESOTA
NATIONAL WEATHER SERVICE TWIN CITIES/CHANHASSEN MN
700 AM CDT TUE JUN 02 2015


NOTE: "FAIR" INDICATES FEW OR NO CLOUDS BELOW 12,000 FEET WITH NO
SIGNIFICANT WEATHER AND/OR OBSTRUCTIONS TO VISIBILITY. N/A MEANS
CURRENT SKY AND/OR WEATHER CONDITIONS ARE NOT AVAILABLE.

MNZ060>063-068>070-021300-
   Twin Cities Metro

CITY           SKY/WX    TMP DP  RH WIND       PRES   REMARKS
TWIN CITIES    PTSUNNY   56  42  59 S13       30.09R
6HR MIN TEMP:  54; 6HR MAX TEMP:  58;

ST PAUL        PTSUNNY   56  45  66 SE12      30.10R
CRYSTAL        PTSUNNY   58  43  57 SE9       30.06S
BLAINE         MOSUNNY   57  45  62 SE12      30.07S
LAKEVILLE      PTSUNNY   55  45  67 S7        30.09S
EDEN PRAIRIE   PTSUNNY   58  44  60 S9        30.07R
6HR MIN TEMP:  54; 6HR MAX TEMP:  58;

SOUTH ST PAUL  PTSUNNY   56  43  61 SE6       30.10R
LAKE ELMO      FAIR      54  43  66 S7        30.10S
$$
MNZ001>005-007-008-013>017-022>024-027-028-021300-
   Northwest Minnesota

CITY           SKY/WX    TMP DP  RH WIND       PRES   REMARKS
BEMIDJI        CLOUDY    59  42  54 S7        29.94R
HALLOCK        CLOUDY    57  54  88 S15       29.83R
ROSEAU         CLOUDY    59  54  82 S10       29.86F
WARROAD        CLOUDY    59  52  77 S6        29.88R
THIEF RVR FALL CLOUDY    59  52  77 S12       29.90R
CROOKSTON      CLOUDY    55  54  94 S12       29.90R
MOORHEAD       CLOUDY    63  48  59 S16       29.89R
PARK RAPIDS    CLOUDY    58  43  57 S9        29.96R
MAHNOMEN       CLOUDY    61  46  58 S13G22    29.90R
$$
MNZ006-009>011-018-025>026-021300-
   North Central Minnesota

CITY           SKY/WX    TMP DP  RH WIND       PRES   REMARKS
BAUDETTE       CLOUDY    57  44  62 SE9       29.90F
INTL FALLS     CLOUDY    55  41  59 VRB5      29.96F
6HR MIN TEMP:  55; 6HR MAX TEMP:  59;

BIG FORK       CLOUDY    55  43  62 S8        29.98F
LONGVILLE      CLOUDY    57  43  58 SE10      29.98S
GRAND RAPIDS   CLOUDY    48  39  71 SE7       30.01F
CRANE LAKE     CLOUDY    54  39  58 S6        30.02S
WALKER         FAIR      56  42  59 S6        29.95F
$$
MNZ012-019>021-037-021300-
   Northeast Minnesota

CITY           SKY/WX    TMP DP  RH WIND       PRES   REMARKS
DULUTH         MOSUNNY   50  38  63 SE8       30.08S
6HR MIN TEMP:  43; 6HR MAX TEMP:  50;

ELY            CLOUDY    55  36  47 S9G16     30.05S
HIBBING        PTSUNNY   47  39  74 SE5       30.04F
EVELETH        PTSUNNY   52  41  66 S5        30.05F
DULUTH HARBOR  SUNNY     45  39  81 NE8       30.11S
TWO HARBORS    MOSUNNY   48  39  71 CALM      30.09R
SILVER BAY     PTSUNNY   46  43  87 CALM      30.09S
GRAND MARAIS     N/A     43  35  73 NE3       30.13S
$$
MNZ029>031-032-039>041-046>048-054>057-064-021300-
   West Central Minnesota

CITY           SKY/WX    TMP DP  RH WIND       PRES   REMARKS
FERGUS FALLS   CLOUDY    61  48  63 S18       29.93R
WHEATON        CLOUDY    57  48  72 SE17      29.91S
MORRIS         CLOUDY    59  50  72 SE16      29.93S
ALEXANDRIA     CLOUDY    60  47  61 S14       29.98R
ELBOW LAKE     FAIR      60  49  67 S20G29    29.93R
WADENA         CLOUDY    57  45  62 S12       29.96S
GLENWOOD       CLOUDY    59  48  67 S14G20    29.98S
APPLETON       CLOUDY    63  48  59 S10G17    29.94R
BENSON         CLOUDY    59  46  63 S10       29.96S
ORTONVILLE     CLOUDY    61  50  67 SE9       29.90F
MADISON        CLOUDY    61  50  67 S15       29.93S
WILLMAR        FAIR      59  48  67 SE10      30.01S
$$
MNZ033>034-036-042>043-049>051-058-059-021300-
   Central Minnesota

CITY           SKY/WX    TMP DP  RH WIND       PRES   REMARKS
ST CLOUD       PTSUNNY   57  46  66 S12       30.02F
6HR MIN TEMP:  51; 6HR MAX TEMP:  58;

SAUK CENTRE    FAIR      57  46  65 S12       29.99S
PAYNESVILLE    CLOUDY    55  46  69 SE12      30.00F
AITKIN         PTSUNNY   57  45  62 S8        30.01R
PINE RIVER     CLOUDY    57  45  62 SE10      30.02S
BRAINERD       PTSUNNY   58  43  57 S12       30.01R
STAPLES        PTSUNNY   55  43  62 SE8       29.98S
LONG PRAIRIE   FAIR      55  45  67 SE10      30.00R
LITTLE FALLS   PTSUNNY   55  43  62 SE9       30.01S
LITCHFIELD     PTSUNNY   61  50  67 SE8       30.02F
BUFFALO        PTSUNNY   57  44  62 SE7       30.06S
MAPLE LAKE     PTSUNNY   59  48  67 SE6       30.04F
$$
MNZ037-044-045-052-053-021300-
   East Central Minnesota

CITY           SKY/WX    TMP DP  RH WIND       PRES   REMARKS
PRINCETON      MOSUNNY   57  45  62 SE9       30.05S
MORA           MOSUNNY   54  41  62 S7        30.07R
CAMBRIDGE      MOSUNNY   55  43  62 SE6       30.04S
RUSH CITY      MOSUNNY   54  43  66 SE9       30.07S
MOOSE LAKE     MOSUNNY   43  39  87 NE3       30.04F
HINCKLEY       FAIR      52  43  71 SE6       30.07R
CLOQUET        SUNNY     43  36  75 E5        30.07F
MCGREGOR       MOSUNNY   52  43  71 SE6       30.04S
$$
MNZ071>073-080-081-089-090-097-098-021300-
   Southwest Minnesota

CITY           SKY/WX    TMP DP  RH WIND       PRES   REMARKS
MONTEVIDEO     CLOUDY    61  50  67 S13       29.96S
GRANITE FALLS  CLOUDY    59  49  70 SE16      29.98F
MARSHALL       CLOUDY    61  46  59 S17       29.96F
REDWOOD FALLS  PTSUNNY   58  50  75 S14       30.00F
OLIVIA         PTSUNNY   54  45  71 S13       29.99F
PIPESTONE      PTSUNNY   57  52  82 S17       29.98S
WINDOM         CLOUDY    57  54  88 S12       30.03F
WORTHINGTON    PTSUNNY   57  50  77 S18G24    30.02F
JACKSON        CLOUDY    55  54  94 S15       30.06R
TRACY          CLOUDY    58  52  78 S15G22    29.98F
SLAYTON        PTSUNNY   57  53  85 S17       30.01S
$$
MNZ065>067-074>077-082>085-091>093-021300-
   South Central Minnesota

CITY           SKY/WX    TMP DP  RH WIND       PRES   REMARKS
MANKATO        PTSUNNY   55  48  76 S12G17    30.07F
NEW ULM        PTSUNNY   55  52  88 S10       30.04F
ST JAMES       PTSUNNY   59  54  82 SE9       30.06S
FAIRMONT       CLOUDY    55  48  76 S12       30.07R
GLENCOE        PTSUNNY   58  50  74 SE9       30.04F
FARIBAULT      PTSUNNY   55  45  67 S7        30.10S
OWATONNA       PTSUNNY   55  45  67 SE12      30.11R
WASECA         PTSUNNY   54  43  66 SE8       30.11R
ALBERT LEA     PTSUNNY   55  46  71 S8        30.11R
$$
MNZ078>079-086>088-094>096-021300-
   Southeast Minnesota

CITY           SKY/WX    TMP DP  RH WIND       PRES   REMARKS
ROCHESTER      PTSUNNY   52  45  77 S10       30.15R
6HR MIN TEMP:  48; 6HR MAX TEMP:  52;

STANTON        PTSUNNY   57  44  62 S9        30.09S
DODGE CENTER   PTSUNNY   54  46  76 S9        30.12R
WINONA         MOSUNNY   54  43  66 SE5       30.15S
AUSTIN         PTSUNNY   52  45  76 S7        30.12R
PRESTON        MOSUNNY   51  42  72 SE8       30.15S
$$
ABBREVIATIONS USED IN REMARKS
   TC - TEMPERATURES IN CELSIUS
  WCI - WIND CHILL INDEX
   HX - HEAT INDEX
  VSB - VISIBILITY
$$



USA.gov is the U.S. government's official web portal to all federal, state and local government web resources and services.